sat.trackr.live / text

‹ back to catalog

STARLINK-35194

NORAD 65671 · 2025-211V

PAYLOAD ACTIVE UNKNOWN

§ Identity

Operator
Country
US
Launch date
2025-09-19
Launch site
AFWTR
Launch vehicle
Mass (kg)
RCS (m²)

Purposes: comms

External: N2YO · Heavens-Above · Gunter

§ Orbital elements

Epoch: 2026-05-25T02:19:19.811712Z

Period
95.64 min
Inclination
97.4455°
Eccentricity
0.0000962
Mean motion
15.05658330 rev/d
Perigee alt
548.8 km
Apogee alt
550.2 km
Semi-major
6,927.6 km
B*
1.6742e-4
RAAN
189.0865°
Arg perigee
117.4773°
Mean anomaly
242.6552°
Rev number
3,854

§ Raw data

STARLINK-351941 65671U 25211V   26145.09675708  .00002358  00000+0  16742-3 0  99962 65671  97.4455 189.0865 0000962 117.4773 242.6552 15.05658330 38547

JSON: /api/v1/satellites/65671 · /tle

For live sub-satellite position, see the globe view (requires WebGL).

§ Visibility from observer

Set your observer location to see the next 7 days of passes ≥ 10°. The values pass through the URL so the page stays shareable.

No JS? Fill the form by hand. The geolocation button needs JavaScript.